www.pogodaiklimat.ru
ПОГОДА в Леско
Время
(UTC), дата
10 23.09
11 23.09
12 23.09
13 23.09
14 23.09
15 23.09
16 23.09
17 23.09
18 23.09
19 23.09
20 23.09
21 23.09
22 23.09
23 23.09
00 24.09
01 24.09
02 24.09
03 24.09
04 24.09
05 24.09
06 24.09
07 24.09
08 24.09
09 24.09
10 24.09
11 24.09
12 24.09
13 24.09
14 24.09
15 24.09
16 24.09
17 24.09
18 24.09
19 24.09
20 24.09
21 24.09
22 24.09
23 24.09
00 25.09
01 25.09
02 25.09
03 25.09
04 25.09
05 25.09
06 25.09
07 25.09
08 25.09
09 25.09
10 25.09
11 25.09
12 25.09
13 25.09
14 25.09
15 25.09
16 25.09
17 25.09
18 25.09
19 25.09
20 25.09
21 25.09
22 25.09
23 25.09
00 26.09
01 26.09
02 26.09
03 26.09
04 26.09
05 26.09
06 26.09
07 26.09
08 26.09
09 26.09
10 26.09
11 26.09
12 26.09
13 26.09
14 26.09
15 26.09
16 26.09
17 26.09
18 26.09
19 26.09
20 26.09
21 26.09
22 26.09
23 26.09
00 27.09
01 27.09
02 27.09
03 27.09
04 27.09
05 27.09
06 27.09
07 27.09
08 27.09
09 27.09
10 27.09
11 27.09
12 27.09
13 27.09
14 27.09
15 27.09
16 27.09
17 27.09
18 27.09
19 27.09
20 27.09
21 27.09
22 27.09
23 27.09
00 28.09
01 28.09
02 28.09
03 28.09
04 28.09
05 28.09
06 28.09
07 28.09
08 28.09
09 28.09
10 28.09
11 28.09
12 28.09
13 28.09
14 28.09
15 28.09
16 28.09
17 28.09
18 28.09
19 28.09
20 28.09
21 28.09
22 28.09
23 28.09
00 29.09
01 29.09
02 29.09
03 29.09
04 29.09
05 29.09
06 29.09
07 29.09
08 29.09
09 29.09
10 29.09
11 29.09
12 29.09
13 29.09
14 29.09
15 29.09
16 29.09
17 29.09
18 29.09
19 29.09
20 29.09
21 29.09
22 29.09
23 29.09
00 30.09
01 30.09
02 30.09
03 30.09
05 30.09
06 30.09
08 30.09
07 30.09
09 30.09
Ветер
(напр.,м/с)
Видим. Явления Облачность Т
(С)
Тd
(С)
f
(%)
Тe
(С)
Тes
(С)
Комфортность P
(гПа)
Po
(гПа)
Тmin
(С)
Tmax
(С)
R
(мм)
R24
(мм)
S
(см)
Ю 5 35 км ясно +22.6 +9.7 44 +24 +29 комфорт 1011.2 963.3
ЮЗ 5 35 км 1/1 1000 м
[Cu hum]
+22.3 +9.8 45 +24 +28 комфорт 1011.0 963.1
Ю 4 35 км 3/1 1000 м
[Cu med, cong Ac trans]
+22.7 +10.2 45 +25 +28 комфорт 1010.8 962.9
Ю 3 35 км 4/1 1000 м
[Cu med, cong Ac trans]
+21.9 +9.8 46 +23 +27 комфорт 1010.7 962.7
Ю 1 35 км 8/3 1000 м
[Cu med, cong Ac und]
+21.3 +11.0 52 +23 +24 комфорт 1010.6 962.5
Ю 2 35 км 9/3 1000 м
[Cu med, cong Ac und]
+20.4 +10.5 53 +23 +23 комфорт 1010.3 962.1
ЮВ 2 35 км 9/3 1000 м
[Cu med, cong Ac und]
+18.8 +11.6 63 +20 +20 1010.3 961.8
ЮВ 2 35 км 9/3 1000 м
[Sc Ac As]
+17.8 +11.4 66 +18 +18 1010.2 961.6
ЮВ 1 35 км 9/3 1000 м
[Sc Ac As]
+16.9 +11.8 72 +18 +18 1010.3 961.5 +11.4 +23.1
ЮВ 1 35 км 5/0
[Ac trans]
+15.7 +11.9 78 +16 +16 1010.4 961.4
ЮВ 1 30 км 3/0
[Ac trans]
+15.2 +11.8 80 +16 +16 1010.5 961.4
ЮВ 1 30 км 6/0
[Ac und]
+14.2 +12.2 88 +15 +15 1010.6 961.4
Ю 1 30 км 9/0
[Ac und]
+13.7 +11.6 87 +14 +14 1010.4 961.1
ЮВ 2 30 км 6/0
[Ac trans]
+13.3 +12.0 92 +13 +13 1010.2 960.8
ЮВ 2 30 км 5/0
[Ac trans]
+13.6 +12.0 90 +13 +13 1009.9 960.6
ЮВ 3 35 км 9/0
[Ac und]
+15.5 +11.3 76 +15 +15 1009.1 960.2
ЮВ 2 35 км 9/0
[Ac trans]
+15.0 +11.2 78 +15 +15 1009.4 960.4
ЮВ 2 35 км 9/0
[Ac trans]
+14.5 +11.6 83 +14 +14 1009.6 960.5
СВ 1 30 км 9/0
[Ac trans]
+13.7 +11.7 88 +14 +14 1009.9 960.6
ЮВ 2 30 км 9/1 1000 м
[Sc Ac trans]
+14.1 +12.7 91 +14 +14 1009.8 960.6
ЮВ 3 35 км 9/1 1000 м
[Sc Ac trans]
+15.9 +12.3 79 +15 +16 1009.5 960.6 +13.1 +16.9
В 1 30 км 8/4 1000 м
[Sc Ac trans]
+16.7 +13.0 79 +18 +19 1009.7 960.9
ЮВ 2 35 км 8/5 1000 м
[Sc Ac trans]
+17.9 +13.2 74 +18 +20 1010.1 961.5
Ю 3 35 км 6/3 1000 м
[Sc Ac trans Ci sp]
+20.4 +13.4 64 +23 +26 комфорт 1009.4 961.2
Ю 4 35 км 6/5 1000 м
[Cu med, cong Ci sp]
+20.8 +12.7 60 +23 +26 комфорт 1009.5 961.4
ЮЗ 4 35 км 6/5 1000 м
[Cu med, cong Ci sp]
+22.0 +13.9 60 +25 +28 комфорт 1009.5 961.6
Ю 5 35 км 6/5 1000 м
[Cu med, cong Ci sp]
+21.0 +12.9 60 +24 +25 комфорт 1009.7 961.6
Ю 3
{9}
35 км 5/3 1000 м
[Cu med, cong Ac trans Ci sp]
+21.9 +13.3 58 +25 +27 комфорт 1009.4 961.5
Ю 3 35 км 6/4 1000 м
[Cu med, cong Ci sp]
+21.6 +12.7 57 +24 +25 комфорт 1009.7 961.7
Ю 4
{9}
35 км 6/3 1000 м
[Cu med, cong Ci sp]
+19.6 +12.4 63 +21 +21 комфорт 1009.8 961.5
ЮВ 2 35 км 6/3 1000 м
[Sc Ci sp]
+17.8 +12.7 72 +18 +18 1010.2 961.6
ЮВ 3 35 км 6/4 1000 м
[Sc Ci sp]
+17.0 +12.7 76 +17 +17 1010.6 961.8
ЮВ 1
{9}
35 км 5/4 1000 м
[Sc Ci sp]
+16.2 +12.7 80 +17 +17 1010.9 962.0 +15.9 +22.2
В 2 35 км 4/3 1000 м
[Sc Ci sp]
+15.1 +12.8 86 +15 +15 1011.2 962.1
В 1 35 км 4/1
[Sc Ci sp]
+14.5 +13.0 91 +15 +15 1011.2 962.0
штиль 0 30 км 3/0
[Ci sp]
+13.8 +12.5 92 +13 +13 1011.2 961.9
В 2 30 км 3/0
[Ci sp]
+13.3 +12.4 94 +12 +12 1010.8 961.4
В 1 30 км 3/0
[Ci sp]
+13.1 +12.6 97 +13 +13 1010.5 961.1
В 2 25 км 1/0
[Ci sp]
+12.8 +12.5 98 +12 +12 1010.0 960.6
ЮВ 1 20 км 1/0
[Ci sp]
+12.5 +12.0 97 +12 +12 1009.4 959.9
ЮВ 1 20 км 1/0
[Ci sp]
+12.4 +11.9 97 +12 +12 1008.9 959.5
Ю 1 15 км 1/0
[Ci sp]
+11.9 +11.3 96 +12 +12 1008.5 959.0
ЮВ 2 20 км 1/0
[Ci sp]
+12.8 +12.3 97 +12 +12 1007.7 958.4
ЮВ 3 25 км 3/0
[Ci sp]
+13.0 +12.4 96 +12 +12 1007.4 958.1
ЮВ 1 30 км 4/0
[Ac trans Ci sp]
+15.2 +13.0 87 +16 +17 1006.8 957.9 +11.7 +16.2
ЮВ 2 35 км 4/1 600 м
[Cu med, cong Ac trans Ci sp]
+17.3 +13.8 80 +18 +20 1005.8 957.3
ЮВ 3 35 км 4/1 600 м
[Cu hum Ac trans Ci sp]
+20.1 +13.5 66 +22 +26 комфорт 1005.0 957.0
ЮВ 5 35 км 4/1 600 м
[Cu hum Ac trans Ci sp]
+21.3 +12.4 57 +24 +26 комфорт 1004.1 956.3
Ю 6 35 км 5/3 1000 м
[Cu med, cong Ci sp]
+21.5 +12.3 56 +24 +26 комфорт 1003.7 956.0
ЮВ 5-10
{11}
35 км 8/4 1000 м
[Cu med, cong Cs]
+22.1 +12.6 55 +25 +27 комфорт 1002.9 955.3
ЮВ 6
{12}
35 км 8/4 1000 м
[Cu med, cong Cs]
+22.2 +12.7 55 +25 +26 комфорт 1002.4 954.9
ЮВ 5
{10}
35 км 8/5 1000 м
[Cu med, cong Cs]
+22.2 +12.7 55 +25 +26 комфорт 1001.7 954.2
ЮВ 5
{9}
35 км 8/1 1000 м
[Cu hum Ac trans Cs]
+21.3 +12.2 56 +23 +24 комфорт 1000.6 953.0
ЮВ 4
{10}
35 км 8/1 1000 м
[Cu med, cong Ac trans Cs]
+20.9 +12.1 57 +23 +24 комфорт 1000.0 952.4
В 3 35 км 9/5 1000 м
[Sc Ac As]
+19.7 +12.5 63 +22 +22 комфорт 999.7 951.9
ЮЗ 2 29 км слаб. ливневой дождь 10/10 1000 м
[Cb cap]
+19.2 +12.5 65 +21 +21 комфорт 1000.3 952.4
ЮВ 4
{10}
16 км слаб. ливневой дождь 10/10 1000 м
[Cb cap]
+16.5 +15.4 93 +16 +16 1001.0 952.6 +15.2 +22.4 1
ЮВ 3 10 км ливневой дождь 10/10 1000 м
[Cb cap]
+16.1 +15.6 97 +16 +16 1000.6 952.2
В 2 17 км в посл. час ливневой дождь 10/10 1000 м
[Cb cap]
+15.6 +15.4 99 +15 +15 999.8 951.3
ЮВ 2 13 км {ливн. дождь} 8/4 1000 м
[Sc Ac trans]
+15.4 +15.2 99 +15 +15 999.4 950.9
ЮВ 2 17 км 8/4 1000 м
[Sc Ac trans]
+15.3 +15.0 98 +15 +15 998.6 950.1
ЮВ 4 35 км 9/5 1000 м
[Sc Ac trans]
+15.9 +14.3 90 +15 +15 997.6 949.3
В 3 35 км {ливн. дождь} 8/4 1000 м
[Sc Ac trans]
+15.8 +13.8 88 +15 +15 996.5 948.2 2
В 3 35 км 9/9 1000 м
[Sc]
+15.8 +13.5 86 +15 +15 996.0 947.7
ЮВ 3 35 км 9/9 1000 м
[Sc]
+16.1 +13.0 82 +16 +16 995.5 947.3
ЮВ 2 35 км 10/10 1000 м
[Sc]
+16.2 +12.9 81 +16 +16 995.0 946.9
В 2 35 км 10/10 1000 м
[Sc]
+16.5 +12.8 79 +17 +17 994.1 946.1
В 3 35 км 9/9 1000 м
[Sc]
+16.7 +12.8 78 +16 +16 993.7 945.7
В 3 35 км 9/9 1000 м
[Sc]
+17.4 +12.9 75 +17 +17 993.3 945.4 +15.0 +17.4 2 2.8
В 2 35 км 9/5 1000 м
[Sc Ac trans]
+17.9 +13.2 74 +18 +19 992.8 945.0
ЮВ 5-11
{11}
35 км 9/9 1000 м
[Sc]
+19.1 +13.3 69 +20 +20 993.0 945.4
ЮВ 4
{12}
35 км 9/9 600 м
[Sc]
+18.1 +14.2 78 +18 +19 993.9 946.1
ЮВ 4 35 км 9/9 1000 м
[Sc]
+18.4 +13.3 72 +19 +19 993.9 946.2
Ю 3 19 км слаб. ливневой дождь 9/9 600 м
[Cb cap]
+16.1 +14.3 89 +16 +16 995.5 947.3
ЮВ 3
{12}
35 км в посл. час ливневой дождь 9/9 1000 м
[Cb cap]
+16.0 +14.2 89 +16 +16 995.9 947.7 2
ЮВ 2 35 км в посл. час ливневой дождь 9/5 1500 м
[Cb cap Ac trans]
+15.8 +13.5 86 +16 +17 995.6 947.4
ЮВ 4 13 км дождь 10/10 1500 м
[Sc]
+14.2 +12.6 90 +13 +13 997.1 948.5
ЮВ 3 35 км слаб. дождь 10/10 1500 м
[Sc]
+13.7 +12.6 93 +12 +12 996.3 947.7
ЮВ 1 35 км слаб. дождь 10/10 1500 м
[Sc]
+13.3 +12.5 95 +13 +13 996.7 948.0
ЮВ 2 10 км слаб. ливневой дождь 9/9 1500 м
[Cb cap]
+12.8 +12.3 97 +12 +12 997.6 948.8
В 1 12 км слаб. ливневой дождь 10/10 1500 м
[Cb cap]
+12.4 +12.2 99 +12 +12 997.5 948.6 +12.4 +19.3 5
В 1 12 км туман на расстоянии {ливн. дождь} 10/10 1000 м
[Cb cap]
+12.2 +12.0 99 +12 +12 997.3 948.4
ЮВ 2 3100 м слаб. ливневой дождь 10/10 600 м
[Cb cap]
+11.9 +11.7 99 +11 +11 998.0 949.0
С 1 16 км слаб. ливневой дождь {туман} 10/10 1500 м
[Cb cap]
+12.0 +11.8 99 +12 +12 998.2 949.2
С 1 200 м слаб. ливневой дождь {туман} 10/10 1000 м
[Cb cap]
+11.8 +11.6 99 +12 +12 997.8 948.8
З 5-12
{12}
3000 м ливневой дождь {туман} 10/10 300 м
[Cb cap]
+10.4 +10.1 98 +7 +7 998.2 948.9
СЗ 3
{12}
3900 м ливневой дождь {туман} 10/10 200 м
[Cb cap]
+8.7 +8.6 99 +6 +6 999.9 950.3 5
СЗ 4 22 км слаб. ливневой дождь 10/10 270 м
[Cb cap]
+7.7 +7.3 97 +4 +4 1000.2 950.4
З 3-8
{8}
35 км в посл. час ливневой дождь 10/10 300 м
[Cb cap]
+7.5 +6.9 96 +4 +4 1000.5 950.6
З 3
{8}
35 км {ливн. дождь} 10/10 1000 м
[Sc]
+7.5 +6.9 96 +4 +4 1000.8 950.9
ЮЗ 2 35 км слаб. ливневой дождь 10/10 1000 м
[Cb cap]
+7.5 +6.4 93 +5 +5 1001.9 952.0
З 2 30 км слаб. ливневой дождь 10/10 1000 м
[Cb cap]
+7.4 +6.2 92 +5 +5 1002.7 952.7
Ю 2
{8}
35 км слаб. ливневой дождь 10/10 1000 м
[Cb cap]
+7.5 +6.6 94 +5 +5 1003.4 953.4 +7.4 +12.4 7 12.7
З 3 14 км слаб. дождь 10/10 1000 м
[Sc]
+7.9 +6.5 91 +5 +5 1004.4 954.4
З 1 27 км слаб. дождь 10/10 1000 м
[Sc]
+8.1 +6.7 91 +7 +7 1005.4 955.4
СЗ 1 22 км слаб. дождь 10/10 600 м
[Sc]
+8.3 +6.9 91 +7 +7 1006.2 956.2
ЮВ 1 11 км слаб. дождь 10/10 600 м
[Sc]
+8.6 +8.2 97 +8 +8 1006.9 956.9
Ю 1 35 км в посл. час дождь 10/10 600 м
[Sc]
+9.2 +8.6 96 +8 +8 1007.5 957.6
Ю 4 35 км {ливн. дождь, дождь} 10/10 300 м
[Sc]
+9.6 +7.9 89 +7 +7 1008.6 958.7 3
Ю 4 35 км 10/10 300 м
[Sc]
+9.9 +8.0 88 +7 +7 1009.3 959.4
Ю 4 35 км 10/10 300 м
[Sc]
+10.0 +7.9 87 +7 +7 1010.3 960.4
Ю 3
{9}
35 км 9/8 600 м
[Sc Ci sp]
+10.4 +6.9 79 +8 +8 1011.0 961.1
ЮВ 3 35 км 6/3 1000 м
[Sc Ac trans Ci sp]
+9.4 +7.2 86 +7 +7 1011.3 961.2
ЮВ 4 35 км 5/4 1000 м
[Sc Ci sp]
+9.3 +6.4 82 +6 +6 1012.8 962.6
Ю 3
{9}
35 км 3/3 1000 м
[Sc]
+8.9 +6.2 83 +6 +6 1013.7 963.4 +7.4 +10.7 3
ЮВ 2 35 км 1/1 1000 м
[Sc]
+9.2 +5.7 79 +8 +8 1014.7 964.4
ЮВ 2 35 км 1/1 1000 м
[Sc]
+8.4 +5.7 83 +7 +7 1015.5 965.0
С 1 35 км 1/1 1000 м
[Sc]
+8.0 +5.8 86 +7 +7 1016.0 965.4
ЮВ 2 35 км ясно +6.5 +5.6 94 +4 +4 1016.3 965.5
ЮВ 2 35 км ясно +6.2 +5.6 96 +4 +4 1016.8 965.9
ЮВ 2 35 км ясно +5.5 +5.2 98 +3 +3 1016.9 965.9
Ю 2 35 км ясно +5.1 +5.0 99 +2 +2 1016.7 965.6
В 2 35 км 1/1 1000 м
[Sc]
+5.0 +4.9 99 +2 +2 1017.2 966.1
ЮВ 2 35 км 3/0
[Ci sp]
+5.2 +4.6 96 +2 +2 1017.4 966.3
ЮВ 1 14 км туман на расстоянии 4/0
[Ci sp]
+4.8 +4.2 96 +3 +3 1016.8 965.6
В 1 35 км туман на расстоянии 9/0
[Cs]
+5.6 +5.0 96 +4 +4 1016.5 965.5
СВ 1 35 км туман на расстоянии 9/0
[Cs]
+6.8 +6.1 95 +6 +6 1016.2 965.4 +4.1 +9.4 3.0
В 1 35 км 9/0
[Cs]
+9.2 +6.1 81 +9 +11 1015.4 965.1
В 1 35 км 4/0
[Ci sp]
+13.5 +8.3 71 +14 +19 1014.2 964.7
ЮВ 3 35 км 5/0
[Ac trans Ci sp]
+15.9 +7.6 58 +16 +20 1013.5 964.4
В 3 35 км 8/0
[Ac trans Ci sp]
+17.3 +8.7 57 +17 +22 1012.9 964.1
В 3
{8}
35 км 8/5 1500 м
[Sc Ac trans Ci sp]
+17.8 +8.9 56 +18 +20 1012.5 963.8
ЮВ 2
{8}
35 км 8/5 1500 м
[Sc Ac trans Ci sp]
+19.1 +9.3 53 +20 +23 1011.9 963.4
ЮВ 2 35 км 8/3
[Sc Cs]
+18.6 +10.2 58 +20 +22 1011.4 962.9
В 4 35 км 8/3
[Sc Cs]
+16.9 +10.5 66 +16 +17 1011.4 962.6
В 4 35 км 9/9 1500 м
[Sc]
+15.2 +10.0 71 +14 +14 1011.6 962.5
В 1 35 км 10/10 1000 м
[Sc]
+14.1 +10.3 78 +14 +14 1011.9 962.6
ЮВ 2 35 км 10/10 1000 м
[Sc]
+13.8 +10.2 79 +13 +13 1012.2 962.8
штиль 0 21 км слаб. дождь 10/10 1000 м
[Sc]
+13.3 +11.2 87 +13 +13 1012.5 963.0 +6.8 +19.2 0.1
штиль 0 10 км слаб. дождь 10/10 1000 м
[Sc]
+12.7 +11.9 95 +12 +12 1012.7 963.1
ЮВ 1 13 км в посл. час дождь 10/10 1000 м
[Sc]
+12.0 +12.0 100 +12 +12 1012.6 962.9
В 1 8000 м слаб. дождь 10/10 1500 м
[Sc]
+11.8 +11.6 99 +12 +12 1012.3 962.6
ЮВ 1 6000 м в посл. час дождь 10/10 1500 м
[Sc]
+11.8 +11.6 99 +12 +12 1012.4 962.7
ЮВ 1 16 км 10/10 1000 м
[Sc]
+11.5 +11.3 99 +11 +11 1011.9 962.2
ЮВ 2 35 км {дождь} 10/6 1000 м
[Sc Ac trans]
+11.7 +11.5 99 +10 +10 1011.4 961.7 2
ЮВ 1 3100 м 10/3 1000 м
[Sc Ac As]
+10.8 +10.8 100 +10 +10 1012.1 962.2
СЗ 1 3100 м туман на расстоянии 10/10 1000 м
[Sc]
+10.1 +9.9 99 +9 +9 1011.8 961.8
ЮВ 1 1800 м туман на расстоянии 10/10 1000 м
[Sc]
+10.0 +9.8 99 +9 +9 1012.1 962.1
Ю 1 2800 м туман на расстоянии 10/10 1000 м
[Sc]
+10.4 +10.2 99 +10 +10 1012.0 962.1
В 2 2900 м туман на расстоянии 10/10 1000 м
[Sc]
+10.2 +10.0 99 +9 +9 1012.2 962.2
ЮВ 1 1100 м туман на расстоянии 9/6 1000 м
[Sc Ac trans]
+10.3 +10.1 99 +10 +10 1012.1 962.1 +9.7 +13.3 2 1.6
Ю 1 200 м туман ?/? +10.6 +10.4 99 +10 +10 1012.1 962.2
СЗ 1 35 км туман на расстоянии 8/5 600 м
[Cu med, cong Ac trans]
+13.5 +13.3 99 +14 +15 1011.7 962.3
С 1 35 км {туман} 8/4 600 м
[Cb calv Ac trans Cs]
+14.7 +11.8 83 +15 +18 1011.5 962.3
СЗ 2 35 км 8/5 1000 м
[Cb cap Ac trans Ci sp]
+15.3 +11.9 80 +15 +18 1011.4 962.3
СЗ 4 35 км 8/4 600 м
[Cb calv Ac trans Ci sp]
+15.7 +10.2 70 +15 +17 1010.9 961.9
З 4 35 км {туман} 6/4 600 м
[Cu med, cong Ac trans Ci sp]
+15.6 +11.2 75 +15 +17 1011.1 962.1
СЗ 4 35 км 8/4 600 м
[Cu med, cong Ac trans Ci sp]
+14.8 +10.6 76 +14 +15 1010.9 961.8
СЗ 4 35 км 9/4 600 м
[Cu med, cong Ac trans Ci sp]
+14.5 +9.9 74 +13 +14 1010.9 961.7
СЗ 4 35 км 8/6 600 м
[Cu med, cong Ci sp]
+14.1 +9.7 75 +13 +13 1011.0 961.7
СЗ 3 30 км 9/8 1000 м
[Sc Ci sp]
+13.2 +9.8 80 +12 +12 1011.5 962.1
СЗ 3 24 км 10/10 600 м
[Sc]
+12.5 +10.4 87 +11 +11 1011.6 962.0
СЗ 3 12 км 10/10 210 м
[Sc]
+12.1 +11.0 93 +10 +10 1011.5 961.9 +10.3 +16.2
З 3
{8}
12 км 10/10 240 м
[Sc]
+11.8 +10.5 92 +10 +10 1011.5 961.8
СЗ 4 4000 м слаб. дождь 10/8 180 м
[Frnb As op]
+11.0 +10.5 97 +8 +8 1011.4 961.6
СЗ 4
{8}
4000 м дождь 10/8 150 м
[Frnb As op]
+10.6 +10.4 99 +8 +8 1010.7 960.9
СЗ 4
{9}
5000 м слаб. дождь 10/8 150 м
[Frnb As op]
+10.4 +10.2 99 +8 +8 1010.1 960.3
СЗ 4
{9}
8000 м дождь 10/8 90 м
[Frnb As op]
+10.5 +10.3 99 +8 +8 1009.5 959.7
СЗ 4
{9}
4000 м слаб. дождь 10/8 100 м
[Frnb As op]
+10.6 +10.6 100 +8 +8 1009.0 959.2 7
СЗ 3 12 км слаб. дождь 10/8 100 м
[Frnb As op]
+10.7 +10.5 99 +8 +8 1008.6 958.9
СЗ 3 10 км дождь 10/8 100 м
[Frnb As op]
+10.7 +10.5 99 +8 +8 1008.0 958.3
СЗ 4 4000 м слаб. дождь 10/8 100 м
[Frnb As op]
+10.7 +10.5 99 +8 +8 1007.5 957.8
СЗ 3 1800 м слаб. дождь 10/8 100 м
[Frnb As op]
+11.0 +10.8 99 +9 +9 1006.8 957.2
СЗ 3 7000 м слаб. дождь 10/8 100 м
[Frnb As op]
+11.0 +10.8 99 +9 +9 1007.0 957.4 +10.4 +12.1 16 15.7
СЗ 4 5000 м слаб. дождь 10/8 100 м
[Frnb As op]
+10.6 +10.4 99 +8 +8 1006.7 957.1
СЗ 3 4000 м слаб. дождь 10/8 100 м
[Frnb As op]
+10.8 +10.6 99 +9 +9 1006.8 957.2
СЗ 3 3100 м слаб. дождь 10/8 100 м
[Frnb As op]
+10.6 +10.4 99 +8 +9 1006.6 957.0
Местоположение метеостанции Леско (Польша): широта 49.47 долгота 22.35 высота над уровнем моря 422 м.
В архиве по умолчанию представлена погода в Леско за последнюю неделю. Архивные данные за месяц целиком и за предыдущие месяцы, начиная с января 2011 года, Вы можете получить, выбрав интересующий диапазон дат из раскрывающегося списка и нажав кнопку "Найти!".
*Определитесь, кто Вы:
Внимание! Время в таблицах - всемирное. Для получения местного времени необходимо прибавить поправку, которая равна 1 ч.
Смотрите также архив погоды в соседних городах и на ближайших метеорологических станциях:
Партнеры нашего сайта:      
Пояснения к столбцам:
  • Ветер - указаны скорость ветра в м/с - средняя за 10 мин, порывы в срок и между сроками (в фигурных скобках) и направление, откуда дует ветер: С - северный,
  • СВ - северо-восточный, В - восточный, ЮВ - юго-восточный, Ю - южный, ЮЗ - юго-западный, З - западный, СЗ - северо-западный.
  • Видимость - горизонтальная дальность видимости в метрах или километрах. При видимости от 1 до 10 км при отсутствии осадков обычно наблюдается дымка, при ухудшении видимости до 1 км и менее - туман. В сухую погоду видимость может ухудшаться дымом, пылью или мглою.
  • Явления - указаны атмосферные явления, наблюдавшиеся в срок или в последний час перед сроком; фигурными скобками обозначены явления, наблюдавшиеся между сроками (за 1-3 часа до срока); квадратными скобками обозначены град или гололедные отложения с указанием их диаметра в мм.
  • Облачность - указаны через наклонную черту общая и нижняя облачность в баллах и высота нижней границы облаков в метрах; квадратными скобками обозначены формы облаков: Ci - перистые, Cs - перисто-слоистые, Cc - перисто-кучевые, Ac - высококучевые, As - высокослоистые, Sc - слоисто-кучевые, Ns - слоисто-дождевые, Cu - кучевые, Cb - кучево-дождевые. Подробнее классификацию облаков см. в Атласе облаков (PDF).
  • T - Температура воздуха - температура, измеренная на высоте 2 м над землей.
  • Td - Температура точки росы - температура, при понижении до которой содержащийся в воздухе водяной пар достигнет насыщения.
  • f - Относительная влажность воздуха - влажноcть воздуха, измеренная на высоте 2 м над землей.
  • Te - Эффективная температура - температура, которую ощущает одетый по сезону человек в тени. Характеристика душности погоды. При расчете учитывается влияние влажности воздуха и скорости ветра на теплоощущения человека.
  • Tes - Эффективная температура на солнце - температура, которую ощущает человек, с поправкой на солнечный нагрев. Характеристика знойности погоды. Зависит от высоты солнца над горизонтом, облачности и скорости ветра. Ночью, в пасмурную погоду, а также при ветре 12 м/с и более поправка равна нулю.
  • P - Атмосферное давление - приведенное к уровню моря атмосферное давление.
  • Po - Атмосферное давление - измеренное на уровне метеостанции атмосферное давление.
  • Tmin - Минимальная температура - минимум температуры воздуха на высоте 2 м над землей.
  • Tmax - Максимальная температура - максимум температуры воздуха на высоте 2 м над землей.
  • R - Количество осадков - Количество выпавших осадков за период времени, мм. При наведении курсора мыши на число - период времени, за который выпало указанное количество осадков.
  • R24 - Количество осадков - Количество выпавших осадков за 24 часа, мм.
  • S - Снежный покров - Высота снежного покрова, см. При наведении курсора мыши на число - состояние снежного покрова и степень покрытия местности в баллах.